Weather History for KAXA - January, 2014

Change the Weather History Date:

Friday, January 17, 2014

  Actual Average Record
Temperature  
Mean Temperature 11 °F -  
Max Temperature 21 °F 23 °F 39 °F (2015)
Min Temperature 1 °F 8 °F -14 °F (1997)
Degree Days  
Heating Degree Days 54    
Moisture  
Dew Point 1 °F    
Average Humidity 66    
Maximum Humidity 79    
Minimum Humidity 53    
Precipitation  
Precipitation 0.00 in - - ()
Sea Level Pressure  
Sea Level Pressure 29.95 in    
Wind  
Wind Speed 17 mph (NW)    
Max Wind Speed 26 mph    
Max Gust Speed 36 mph    
Visibility 10 miles    
Events Snow    
Averages and records for this station are not official NWS values.
T = Trace of Precipitation, MM = Missing Value Source: NWS Daily Summary

Daily Weather History Graph

Daily Weather History Graph

Search for Another Location

Airport or City:

Trip Planner

Search our weather history database for the weather conditions in past years. The results will help you decide how hot, cold, wet, or windy it might be!

Date:

Astronomy

Jan. 17, 2014 Rise Set
Actual Time 7:44 AM CST 5:10 PM CST
Civil Twilight 7:13 AM CST 5:41 PM CST
Nautical Twilight 6:38 AM CST 6:16 PM CST
Astronomical Twilight 6:04 AM CST 6:50 PM CST
Moon 7:01 PM CST (1/17) 8:09 AM CST (1/17)
Length of Visible Light 10h 28m
Length of Day
9h 25m
Full, 98% of the Moon is Illuminated
Jan 17
Full
Jan 23
Last Quarter
Jan 30
New
Feb 6
First Quarter
Feb 14
Full

Hourly Weather History & Observations

Time (CST) Temp. Windchill Dew Point Humidity Pressure Visibility Wind Dir Wind Speed Gust Speed Precip Events Conditions
12:15 AM 5.0 °F -15.2 °F -2.2 °F 72% 29.90 in 10.0 mi NNW 19.6 mph 33.4 mph N/A   Overcast
12:35 AM 5.0 °F -17.5 °F -2.2 °F 72% 29.90 in 10.0 mi NNW 25.3 mph 35.7 mph N/A   Mostly Cloudy
12:55 AM 5.0 °F -16.2 °F -2.2 °F 72% 29.90 in 10.0 mi NNW 21.9 mph 29.9 mph N/A   Overcast
1:15 AM 5.0 °F -16.2 °F -2.2 °F 72% 29.90 in 10.0 mi NNW 21.9 mph 33.4 mph N/A   Overcast
1:35 AM 5.0 °F -17.5 °F -2.2 °F 72% 29.91 in 10.0 mi NNW 25.3 mph 32.2 mph N/A   Overcast
1:55 AM 5.0 °F -16.2 °F -2.2 °F 72% 29.91 in 10.0 mi NNW 21.9 mph 28.8 mph N/A   Mostly Cloudy
2:15 AM 5.0 °F -16.7 °F -4.0 °F 66% 29.91 in 10.0 mi NNW 23.0 mph 29.9 mph N/A   Overcast
2:35 AM 5.0 °F -16.7 °F -2.2 °F 72% 29.92 in 10.0 mi NNW 23.0 mph 29.9 mph N/A   Overcast
2:55 AM 5.0 °F -16.7 °F -2.2 °F 72% 29.92 in 10.0 mi NNW 23.0 mph 33.4 mph N/A   Overcast
3:15 AM 5.0 °F -15.7 °F -4.0 °F 66% 29.93 in 9.0 mi NNW 20.7 mph 27.6 mph N/A Snow Light Snow
3:35 AM 3.2 °F -19.0 °F -4.0 °F 72% 29.93 in 10.0 mi NNW 23.0 mph 31.1 mph N/A   Overcast
3:55 AM 3.2 °F -20.3 °F -4.0 °F 72% 29.93 in 10.0 mi NNW 26.5 mph 32.2 mph N/A Snow Light Snow
4:15 AM 3.2 °F -19.9 °F -4.0 °F 72% 29.93 in 10.0 mi NNW 25.3 mph 33.4 mph N/A   Overcast
4:35 AM 3.2 °F -19.0 °F -4.0 °F 72% 29.94 in 10.0 mi NNW 23.0 mph 32.2 mph N/A   Overcast
4:55 AM 3.2 °F -18.6 °F -5.8 °F 66% 29.95 in 10.0 mi NNW 21.9 mph 32.2 mph N/A   Mostly Cloudy
5:15 AM 1.4 °F -19.9 °F -5.8 °F 72% 29.96 in 10.0 mi NNW 19.6 mph 25.3 mph N/A   Clear
5:35 AM 1.4 °F -18.8 °F -5.8 °F 72% 29.96 in 10.0 mi NNW 17.3 mph 26.5 mph N/A   Clear
5:55 AM 1.4 °F -21.4 °F -5.8 °F 72% 29.96 in 10.0 mi NNW 23.0 mph - N/A   Clear
6:15 AM 1.4 °F -21.0 °F -5.8 °F 72% 29.97 in 10.0 mi NNW 21.9 mph - N/A   Clear
6:35 AM 1.4 °F -19.4 °F -5.8 °F 72% 29.97 in 10.0 mi NNW 18.4 mph 25.3 mph N/A   Clear
6:55 AM 1.4 °F -18.8 °F -5.8 °F 72% 29.98 in 10.0 mi NNW 17.3 mph - N/A   Clear
7:15 AM 1.4 °F -17.6 °F -5.8 °F 72% 29.98 in 10.0 mi NNW 15.0 mph 20.7 mph N/A   Mostly Cloudy
7:35 AM 1.4 °F -16.1 °F -5.8 °F 72% 29.99 in 10.0 mi NNW 12.7 mph - N/A   Mostly Cloudy
7:55 AM 1.4 °F -18.2 °F -5.8 °F 72% 29.99 in 10.0 mi NNW 16.1 mph 24.2 mph N/A   Partly Cloudy
8:15 AM 1.4 °F -19.9 °F -5.8 °F 72% 29.99 in 10.0 mi NNW 19.6 mph - N/A   Clear
8:35 AM 1.4 °F -18.8 °F -5.8 °F 72% 30.00 in 10.0 mi NNW 17.3 mph 23.0 mph N/A   Clear
8:55 AM 3.2 °F -16.5 °F -5.8 °F 66% 30.00 in 10.0 mi NNW 17.3 mph 24.2 mph N/A   Partly Cloudy
9:15 AM 3.2 °F -17.6 °F -4.0 °F 72% 30.01 in 10.0 mi NNW 19.6 mph - N/A   Clear
9:35 AM 5.0 °F -14.2 °F -4.0 °F 66% 30.01 in 10.0 mi NNW 17.3 mph 24.2 mph N/A   Clear
9:55 AM 5.0 °F -13.6 °F -2.2 °F 72% 30.01 in 10.0 mi NNW 16.1 mph 24.2 mph N/A   Clear
10:15 AM 6.8 °F -12.9 °F -2.2 °F 67% 30.01 in 10.0 mi North 19.6 mph - N/A   Clear
10:35 AM 8.6 °F -9.5 °F -0.4 °F 67% 30.01 in 10.0 mi NNW 17.3 mph 24.2 mph N/A   Clear
10:55 AM 10.4 °F -7.2 °F -0.4 °F 62% 30.01 in 10.0 mi North 17.3 mph - N/A   Clear
11:15 AM 10.4 °F -7.2 °F 1.4 °F 67% 30.02 in 10.0 mi NNW 17.3 mph - N/A   Clear
11:35 AM 12.2 °F -2.5 °F 3.2 °F 67% 30.01 in 10.0 mi NNW 12.7 mph 19.6 mph N/A   Clear
11:55 AM 14.0 °F -1.4 °F 3.2 °F 62% 30.00 in 10.0 mi North 15.0 mph 20.7 mph N/A   Clear
12:15 PM 14.0 °F -2.5 °F 3.2 °F 62% 29.99 in 10.0 mi NNW 17.3 mph 23.0 mph N/A   Clear
12:35 PM 15.8 °F 0.9 °F 5.0 °F 62% 29.99 in 10.0 mi North 15.0 mph 21.9 mph N/A   Clear
12:55 PM 15.8 °F 2.1 °F 5.0 °F 62% 30.00 in 10.0 mi NW 12.7 mph - N/A   Clear
1:15 PM 17.6 °F 4.3 °F 5.0 °F 58% 29.99 in 10.0 mi NW 12.7 mph 18.4 mph N/A   Clear
1:35 PM 17.6 °F 3.7 °F 6.8 °F 63% 29.99 in 10.0 mi NW 13.8 mph - N/A   Clear
1:55 PM 19.4 °F 5.0 °F 6.8 °F 58% 29.99 in 10.0 mi NNW 16.1 mph - N/A   Clear
2:15 PM 19.4 °F 6.6 °F 6.8 °F 58% 29.99 in 10.0 mi NNW 12.7 mph - N/A   Clear
2:35 PM 19.4 °F 9.5 °F 6.8 °F 58% 29.99 in - NNW 8.1 mph 16.1 mph N/A   Clear
2:55 PM 21.2 °F 10.1 °F 6.8 °F 54% 29.99 in 10.0 mi NNW 10.4 mph - N/A   Clear
3:15 PM 21.2 °F 9.5 °F 6.8 °F 54% 29.98 in 10.0 mi NNW 11.5 mph - N/A   Clear
3:35 PM 21.2 °F 10.9 °F 6.8 °F 54% 29.99 in 10.0 mi NW 9.2 mph - N/A   Clear
3:55 PM 21.2 °F 10.9 °F 8.6 °F 58% 29.99 in 10.0 mi NW 9.2 mph - N/A   Clear
4:15 PM 21.2 °F 9.5 °F 6.8 °F 54% 29.99 in 10.0 mi NW 11.5 mph - N/A   Clear
4:35 PM 21.2 °F 10.9 °F 8.6 °F 58% 29.99 in 10.0 mi NW 9.2 mph - N/A   Clear
4:55 PM 19.4 °F 9.5 °F 8.6 °F 63% 30.00 in 10.0 mi WNW 8.1 mph - N/A   Clear
5:15 PM 17.6 °F 8.2 °F 8.6 °F 68% 29.99 in 10.0 mi West 6.9 mph - N/A   Clear
5:35 PM 17.6 °F - 8.6 °F 68% 29.98 in 10.0 mi Calm Calm - N/A   Clear
5:55 PM 17.6 °F - 8.6 °F 68% 29.98 in 10.0 mi Calm Calm - N/A   Clear
6:15 PM 15.8 °F - 6.8 °F 68% 29.97 in 10.0 mi Calm Calm - N/A   Clear
6:35 PM 14.0 °F - 6.8 °F 73% 29.97 in 10.0 mi Calm Calm - N/A   Clear
6:55 PM 14.0 °F - 6.8 °F 73% 29.96 in 10.0 mi Calm Calm - N/A   Clear
7:15 PM 14.0 °F 5.1 °F 8.6 °F 79% 29.96 in 10.0 mi SW 5.8 mph - N/A   Clear
7:35 PM 15.8 °F 7.2 °F 8.6 °F 73% 29.95 in 10.0 mi SSW 5.8 mph - N/A   Partly Cloudy
7:55 PM 15.8 °F 4.2 °F 6.8 °F 68% 29.94 in 10.0 mi SW 9.2 mph - N/A   Mostly Cloudy
8:15 PM 15.8 °F 5.1 °F 5.0 °F 62% 29.93 in 10.0 mi SSW 8.1 mph - N/A   Overcast
8:35 PM 17.6 °F 5.7 °F 5.0 °F 58% 29.93 in 10.0 mi SW 10.4 mph - N/A   Overcast
8:55 PM 17.6 °F 5.7 °F 5.0 °F 58% 29.92 in 10.0 mi SW 10.4 mph - N/A   Overcast
9:15 PM 15.8 °F 6.1 °F 5.0 °F 62% 29.90 in 10.0 mi SSW 6.9 mph - N/A   Overcast
9:35 PM 15.8 °F 5.1 °F 5.0 °F 62% 29.88 in 10.0 mi South 8.1 mph - N/A   Overcast
9:55 PM 15.8 °F 4.2 °F 5.0 °F 62% 29.86 in 10.0 mi South 9.2 mph - N/A   Overcast
10:15 PM 15.8 °F 2.7 °F 5.0 °F 62% 29.84 in 10.0 mi South 11.5 mph - N/A   Overcast
10:35 PM 15.8 °F 3.4 °F 5.0 °F 62% 29.83 in 10.0 mi South 10.4 mph - N/A   Overcast
10:55 PM 15.8 °F 2.1 °F 3.2 °F 58% 29.81 in 10.0 mi South 12.7 mph - N/A   Overcast
11:15 PM 15.8 °F 0.9 °F 3.2 °F 58% 29.79 in 10.0 mi South 15.0 mph - N/A   Overcast
11:35 PM 17.6 °F 3.7 °F 3.2 °F 53% 29.77 in 10.0 mi South 13.8 mph - N/A   Overcast
11:55 PM 17.6 °F 3.2 °F 3.2 °F 53% 29.74 in 10.0 mi South 15.0 mph - N/A   Overcast